User: anonymous   Login
Location: Summit Observatory
(39.5293°N, 75.7290°W)
Time: 04:32:53
(UTC-04:00)
Language:

Gurwin Techsat 1B - Orbit

View from above orbital plane
View from above orbital plane
View from above satellite
View from above satellite

Ground track
Ground track

The orbit data is extracted from the following two-line orbital elements,

1 25397U 98043D   17147.88305079 -.00000015 +00000-0 +12516-4 0  9996
2 25397 098.6088 090.6492 0002374 072.8642 287.2796 14.23622285980689
Epoch (UTC): 27 May 2017 21:11:35
Eccentricity: 0.0002374
inclination: 98.6088°
perigee height: 811 km
apogee height: 815 km
right ascension of ascending node: 90.6492°
argument of perigee: 72.8642°
revolutions per day: 14.23622285
mean anomaly at epoch: 287.2796°
orbit number at epoch: 98068

The dashed part of the orbit path shows where the satellite is in the earth's shadow,  

DLR